Regional Weather Roundup
Issued by NWS

Home | Current Version | Previous Version | Graphics & Text | Print | Product List | Glossary On
Versions: 1 2 3 4 5 6 7 8 9 10 11 12 13 14 15 16 17 18 19 20 21 22 23 24 25 26 27 28 29 30 31 32 33 34 35 36 37 38 39 40 41 42 43 44 45 46 47 48 49 50
000
ASUS43 KFSD 262110
RWRSD

WEATHER ROUNDUP FOR SOUTH DAKOTA
NATIONAL WEATHER SERVICE SIOUX FALLS SD
400 PM CDT SUN APR 26 2015

NOTE: "FAIR" INDICATES FEW OR NO CLOUDS BELOW 12,000 FEET WITH NO
SIGNIFICANT WEATHER AND/OR OBSTRUCTIONS TO VISIBILITY.


SDZ001>005-009-010-012>017-262200-
NORTHWEST AND NORTH CENTRAL SOUTH DAKOTA

CITY           SKY/WX    TMP DP  RH WIND       PRES   REMARKS
BUFFALO          N/A     46  45  96 NE17      29.99S
FAITH            N/A     57  40  52 SE13      30.04R
MOBRIDGE       MOSUNNY   68  36  30 S14       30.02F
$$

SDZ012>016-024>037-041>051-057-063-072>074-262200-
SOUTHWEST AND SOUTH CENTRAL SOUTH DAKOTA

CITY           SKY/WX    TMP DP  RH WIND       PRES   REMARKS
RAPID CTY ARPT LGT RAIN  50  46  86 CALM      30.02S
PIERRE         PTSUNNY   62  39  42 E13G20    30.03S
CUSTER         LGT RAIN  40  38  93 E7        30.03R
ELLSWORTH AFB  LGT RAIN  50  47  90 W5        30.02
PHILIP         CLOUDY    60  40  47 SE9G21    30.03S
PINE RIDGE     CLOUDY    51  45  79 E9        30.00F
SPEARFISH      PTSUNNY   48  45  87 E14       30.03R
WINNER         FAIR      63  36  36 E14G22    30.03S
$$

SDZ004>011-016>023-039-040-262200-
NORTHEAST SOUTH DAKOTA

CITY           SKY/WX    TMP DP  RH WIND       PRES   REMARKS
ABERDEEN       SUNNY     67  33  28 E10       30.07S
WATERTOWN      SUNNY     64  30  27 VRB6      30.08S
BROOKINGS      SUNNY     63  34  34 NE8       30.07S
SISSETON         N/A     64  29  26 VRB6      30.09F
$$

SDZ017-020-022-023-036>040-048>070-262200-
SOUTHEAST SOUTH DAKOTA

CITY           SKY/WX    TMP DP  RH WIND       PRES   REMARKS
SIOUX FALLS    MOSUNNY   66  32  28 NE8       30.03F
HURON          SUNNY     67  30  25 SE10      30.05S
CHAMBERLAIN    MOSUNNY   63  31  30 E12G21    30.04S
MITCHELL       SUNNY     65  34  31 SE8       30.05F
YANKTON        SUNNY     64  34  32 E12       30.02S
$$

ABBREVIATIONS USED IN REMARKS
   TC - TEMPERATURE IN CELSIUS
  WCI - WIND CHILL INDEX
   HX - HEAT INDEX
  VSB - VISIBILITY




USA.gov is the U.S. government's official web portal to all federal, state and local government web resources and services.